Volver al catálogo

TJS-27B

ActivoLEO
NORAD 100176·PAYLOAD·🇨🇳 China

Lanzado Jul 30, 2026 desde Taiyuan Satellite Launch Center

Loading…

Próximos Pases (próximas 24 horas)

TLE

ActualizadoSource: Space-Track

Época: Sep 14, 2026, 14:51 UTC

1 A0176U 26173C   26257.61916321 -.00000019  00000-0  12832-3 0  9994
2 A0176  64.7896 165.5289 0004741 262.0722  97.9769 13.28335879  6191

Sigue TJS-27B en tiempo real con AllMySat

Download on the App Store